Temp
20 21 22 23 23 23 23 23 23 24 24 24 24 23 24 23 23 23 24 24 23 23 23 23 23 23 24 24 24 25 25 26 26 26 26 26 27 28 28 28 28 28
21 20 21 23 23 23 23 23 24 24 23 24 24 24 24 23 23 23 24 24 23 23 23 23 23 23 24 24 24 24 25 25 26 26 26 26 27 28 28 28 28 28
20 20 21 24 23 23 23 23 23 24 24 24 24 24 24 23 23 23 24 24 24 24 24 23 24 24 24 24 24 24 25 24 25 26 26 26 26 27 27 28 28 28
20 20 22 24 24 23 24 23 23 24 24 24 24 24 24 24 24 24 24 24 23 24 24 24 24 24 24 24 24 25 25 25 25 26 26 25 26 27 27 28 28 28
21 21 23 24 24 23 24 24 24 24 24 24 24 24 24 24 24 25 24 24 23 24 24 24 24 24 24 24 24 25 25 25 25 25 25 25 26 26 27 27 27 27
21 22 23 24 24 24 24 24 24 24 24 24 24 24 24 23 24 25 25 25 24 24 25 25 25 25 25 24 24 24 25 26 26 25 25 25 26 26 27 27 27 27
22 23 23 24 24 24 24 25 25 25 24 24 24 24 24 23 24 25 25 25 25 25 26 26 25 25 25 25 24 24 25 25 26 25 25 25 25 26 27 27 27 26
23 23 23 24 24 24 24 25 25 25 24 24 24 24 24 24 24 24 25 25 25 26 26 26 25 25 25 25 25 25 25 25 26 25 25 25 26 26 26 26 26 26
23 24 23 23 24 24 25 25 25 25 25 25 25 25 24 24 24 25 25 25 26 26 26 26 25 25 25 25 25 25 25 25 26 26 25 25 26 26 26 26 26 26
23 24 24 24 25 25 25 26 25 25 25 25 25 25 25 25 25 25 25 25 25 26 25 25 25 25 25 25 25 25 25 25 26 26 26 26 26 26 26 26 27 27
24 24 24 24 25 25 25 26 26 25 25 25 25 25 25 25 25 25 25 25 25 26 25 25 25 25 25 25 26 26 26 26 26 26 26 26 26 26 26 26 27 27
23 23 24 25 25 26 26 26 26 26 25 25 25 25 25 25 25 25 25 25 25 26 26 26 25 25 25 25 26 26 26 26 26 26 26 26 26 26 26 26 26 27
23 24 25 25 25 26 26 26 26 26 26 25 25 25 26 26 26 25 25 25 25 26 26 26 26 25 25 25 26 26 26 26 26 27 27 26 26 26 26 26 26 26
24 25 25 25 25 26 26 26 26 26 26 26 26 26 26 26 26 26 25 26 26 26 26 26 26 26 26 26 26 26 26 26 26 27 27 27 27 26 26 26 26 27
24 25 25 25 25 25 25 26 26 26 26 26 26 26 26 26 27 27 26 26 26 26 26 27 26 26 26 26 26 26 26 26 26 26 26 26 26 26 26 26 26 27
23 24 24 25 25 25 25 25 26 26 26 26 26 26 26 26 27 27 27 27 27 27 26 27 27 27 27 26 26 26 26 26 26 26 26 26 26 26 26 26 26 27
23 23 23 24 24 24 25 25 25 26 26 26 26 26 26 26 26 26 27 27 27 27 27 27 27 27 27 26 25 25 26 26 26 26 26 26 26 26 26 26 27 27
23 23 23 23 24 24 24 24 25 25 26 26 26 26 26 26 26 26 26 27 27 27 27 27 27 27 27 26 25 25 25 26 26 26 26 26 26 27 27 27 27 27
23 23 23 23 23 23 23 24 24 25 25 25 26 26 26 25 25 25 26 26 26 26 27 27 27 27 26 26 25 25 25 25 26 26 26 26 26 27 27 27 27 27
22 23 23 23 23 23 23 24 24 24 25 25 25 25 25 25 25 25 26 26 26 26 26 26 26 26 26 26 25 25 25 25 25 26 26 26 26 26 26 26 26 26
22 22 23 23 23 23 23 24 24 24 24 24 25 25 25 25 25 25 26 26 25 26 26 26 26 26 26 25 25 25 25 25 25 25 26 26 26 26 26 26 26 26
21 22 22 23 23 23 23 23 24 24 24 24 24 24 25 25 25 25 25 25 25 25 25 26 26 26 26 25 25 25 25 25 24 24 25 26 26 26 26 26 25 25
21 21 22 22 22 22 23 23 23 24 24 24 24 24 24 24 24 25 25 25 25 25 25 25 26 26 26 25 25 25 25 25 24 25 25 25 26 26 26 26 25 25
20 21 21 22 22 22 22 22 23 23 23 23 23 24 24 24 24 24 24 25 25 25 25 25 26 26 25 25 25 25 25 25 24 25 25 25 25 26 26 26 26 25
20 20 21 21 21 21 21 21 21 21 22 22 22 23 23 24 24 24 24 24 24 24 25 25 25 26 26 25 25 25 25 25 24 25 25 25 26 26 26 26 26 25
20 20 21 21 21 21 20 20 20 20 20 20 21 22 23 23 23 24 24 24 24 24 24 24 25 25 25 25 25 25 25 25 24 25 25 25 26 26 26 26 26 25
Height
805 806 807 809 810 812 813 815 817 818 820 822 824 827 829 831 834 836 838 840 842 843 844 845 846 847 848 849 850 850 851 851 852 853 853 854 854 854 854 854 854 854
805 806 807 807 809 810 811 813 815 817 819 821 823 825 827 830 832 835 837 838 840 842 843 844 845 846 847 848 849 849 850 851 851 852 852 853 853 853 853 853 853 854
803 804 805 806 807 808 810 812 814 815 817 819 821 824 826 828 831 833 835 837 839 840 842 843 844 845 846 847 848 848 849 850 850 851 851 852 852 852 852 852 852 852
801 802 803 804 805 807 808 810 812 814 816 818 820 822 824 827 829 831 834 836 838 839 840 841 842 843 845 845 847 847 848 849 850 850 851 851 851 851 851 851 851 851
799 800 801 802 803 805 806 808 810 812 814 816 818 821 823 825 827 829 831 834 836 837 838 840 841 842 843 844 845 846 847 847 849 849 850 850 850 850 850 850 850 850
796 797 799 800 801 803 804 806 808 810 813 815 817 819 821 823 826 827 829 831 833 835 836 838 839 840 841 842 844 845 845 846 846 848 848 848 849 849 848 849 849 849
794 795 797 798 799 801 802 804 807 809 811 813 815 817 819 822 824 825 827 829 831 833 834 835 837 838 840 841 842 843 844 844 845 845 847 847 847 847 847 847 848 848
792 793 795 796 797 799 800 802 805 807 809 811 813 815 818 820 822 824 826 827 829 831 832 834 835 837 838 839 840 841 842 843 843 844 845 845 845 846 846 846 847 847
790 791 793 794 795 797 799 800 803 805 808 810 811 813 815 818 820 822 824 826 827 829 830 832 834 835 836 837 838 839 840 841 841 841 842 843 843 844 844 845 845 845
788 789 791 792 793 795 797 799 801 803 806 808 810 811 813 816 818 820 822 824 825 827 828 830 831 833 834 835 836 837 838 839 838 839 840 840 841 841 842 843 843 843
786 788 790 791 792 793 795 797 799 802 804 806 808 810 811 813 816 818 820 822 823 825 826 828 829 831 832 833 833 834 835 836 836 837 837 838 838 839 840 841 841 841
785 787 788 789 790 792 794 796 798 800 802 805 806 808 810 811 814 816 817 819 821 822 824 825 827 828 829 830 831 831 832 833 833 834 835 835 836 837 838 838 839 839
785 786 786 787 789 791 792 794 796 798 800 803 805 806 808 809 811 813 815 817 819 820 821 823 824 825 826 827 828 829 829 830 831 831 832 833 834 834 835 836 836 837
784 784 785 787 788 790 792 793 795 797 799 800 802 804 806 807 808 811 813 815 817 818 819 820 821 823 824 825 826 826 827 828 828 829 830 830 831 832 832 833 833 834
783 784 785 786 788 789 791 793 794 795 797 798 800 801 803 805 806 808 810 812 813 815 816 817 818 819 820 822 823 824 824 825 826 827 827 828 829 829 830 830 831 831
783 784 785 786 787 789 790 792 793 794 795 797 798 800 801 803 804 806 807 808 810 812 813 814 815 816 817 818 820 821 822 823 823 824 825 826 826 827 827 828 828 828
782 783 784 785 787 788 789 791 792 793 794 795 797 798 800 801 802 804 804 806 807 808 810 811 811 812 813 815 817 818 820 820 821 822 822 823 823 824 824 825 825 825
781 782 783 784 785 787 788 790 791 792 792 794 795 796 798 799 801 802 803 804 805 806 807 808 808 809 811 812 814 815 817 818 819 819 820 820 820 820 821 821 822 823
779 780 781 783 784 785 787 788 789 790 791 792 793 794 796 797 799 800 801 802 803 804 805 805 806 807 808 809 811 812 814 815 816 817 817 817 817 818 818 818 819 820
778 779 780 782 782 784 785 785 787 788 788 790 791 792 793 795 796 797 798 800 801 802 802 803 804 805 806 807 808 810 812 813 814 814 814 814 815 815 816 816 816 817
776 777 779 779 780 782 782 783 784 785 786 787 788 789 791 792 793 794 795 797 798 799 799 800 801 802 803 804 806 807 809 810 811 811 812 811 812 812 813 813 813 814
774 775 776 777 778 779 779 780 781 781 783 784 785 787 788 789 790 791 792 794 794 795 796 796 797 798 799 800 802 804 806 807 808 808 808 808 808 809 809 809 810 810
773 774 774 775 775 776 776 777 777 778 780 781 782 783 784 785 787 788 789 790 791 792 793 793 794 794 795 796 798 800 801 803 804 805 805 805 805 805 806 806 806 807
773 773 773 773 774 774 775 776 777 777 778 778 779 779 780 782 783 785 786 787 787 788 789 789 790 790 792 793 794 796 797 799 800 801 801 801 802 802 802 803 803 803
772 772 772 772 773 774 775 777 778 778 778 778 777 777 777 779 780 781 782 783 784 785 785 786 786 787 788 789 790 792 794 795 796 796 797 797 798 798 799 799 799 799
770 771 771 770 771 773 775 777 778 778 778 778 777 776 776 776 777 778 778 779 780 781 781 782 783 783 784 785 786 788 790 791 793 793 792 793 794 794 795 795 795 795
Wind_Speed
18 19 17 17 16 15 17 17 16 16 17 16 16 15 15 15 15 16 15 14 13 13 12 12 12 12 11 10 10 9 9 10 10 9 9 9 9 9 9 8 8 8
19 19 16 16 16 15 16 17 16 16 16 16 15 15 15 15 15 16 15 14 13 13 12 12 12 13 12 11 11 11 10 10 10 10 10 10 10 10 9 9 8 8
20 19 17 16 16 16 16 16 15 15 16 16 15 15 15 16 16 17 16 14 13 13 12 12 13 13 13 12 11 12 11 10 11 10 9 10 10 10 10 9 9 9
21 20 19 16 15 16 16 16 16 15 15 16 16 15 15 16 17 17 17 15 14 13 12 12 13 13 14 13 12 12 11 11 12 10 9 10 10 10 10 10 9 9
19 18 17 16 15 15 15 16 16 16 16 16 16 15 15 15 17 18 18 17 16 14 12 13 13 13 14 13 13 13 12 12 14 12 10 10 10 10 11 10 10 9
17 17 16 16 15 15 16 16 16 16 16 16 15 15 15 15 17 18 18 18 17 16 14 13 13 13 14 13 13 14 13 13 13 13 12 12 11 11 11 10 10 10
16 16 16 16 16 16 16 16 16 16 16 16 15 15 15 16 17 17 17 18 18 17 15 14 13 14 14 13 14 14 14 13 12 12 13 13 12 12 12 11 10 10
16 16 17 17 17 16 16 16 16 16 16 16 15 15 15 16 17 18 17 17 18 16 15 14 13 13 14 14 14 15 15 15 14 13 13 13 13 13 12 12 11 11
16 16 17 17 17 17 17 17 17 16 16 16 15 15 15 16 18 19 18 17 17 16 14 14 13 14 15 15 15 15 16 16 16 15 15 14 14 13 13 13 13 12
18 16 16 17 17 17 17 18 17 17 16 16 15 15 15 16 17 18 17 17 17 15 15 15 14 15 15 15 16 16 16 17 16 15 15 15 14 14 13 14 14 14
16 16 16 17 17 17 17 18 17 17 16 16 15 14 15 16 16 16 16 17 17 16 16 16 15 15 15 16 16 16 16 17 16 15 15 14 14 14 13 13 13 13
15 16 17 16 16 16 17 17 17 16 16 16 16 15 15 16 17 17 17 16 17 17 17 16 16 16 16 16 16 16 16 16 16 16 16 15 15 14 14 14 14 14
16 16 15 15 16 16 16 17 17 17 16 16 16 16 16 16 17 18 17 17 18 18 18 16 16 16 16 16 16 16 16 16 16 16 16 16 16 15 14 14 14 14
14 14 13 14 15 15 15 16 16 16 16 16 16 16 17 17 17 18 18 19 19 19 18 16 16 16 16 16 17 16 15 15 15 16 16 16 16 15 15 15 15 15
12 12 12 13 14 15 15 15 16 16 16 16 16 17 17 17 17 18 18 19 18 18 17 17 16 17 17 18 17 17 16 16 15 15 16 16 15 15 15 15 15 15
11 11 11 12 13 15 16 16 16 16 16 16 16 16 16 17 17 17 17 18 18 18 17 17 17 17 18 19 19 17 16 15 15 15 15 15 15 15 15 15 16 16
10 11 12 12 13 14 15 16 17 16 16 16 17 17 17 17 16 17 17 17 18 18 18 19 18 18 18 20 21 20 17 15 15 15 15 16 16 16 16 16 16 16
9 11 13 14 14 14 15 15 16 16 16 17 17 18 18 17 17 18 18 18 18 18 19 19 19 18 18 20 22 22 21 18 16 16 16 17 17 18 17 17 16 16
11 11 12 14 15 15 15 15 16 17 17 17 18 18 18 18 18 19 19 19 18 18 19 19 19 19 20 21 22 23 23 21 19 18 18 18 18 18 17 17 16 16
12 12 11 12 14 15 16 16 17 18 18 18 17 18 18 19 20 20 20 20 20 20 19 20 20 20 20 22 23 23 23 22 20 19 19 19 19 18 18 17 17 17
13 13 12 11 12 14 15 17 17 18 18 18 17 18 18 19 20 20 20 21 21 21 21 21 21 21 22 23 24 24 23 22 21 20 19 20 20 19 19 18 18 18
12 15 15 14 13 13 14 16 17 18 18 17 17 17 18 18 19 19 20 21 21 21 22 22 22 22 23 24 25 25 24 23 22 20 20 20 21 20 20 19 19 19
11 14 16 16 15 15 15 16 17 18 18 17 17 18 18 18 18 18 19 20 20 21 22 23 22 22 23 25 25 25 25 24 22 20 20 21 21 21 21 20 20 20
9 12 14 15 15 15 16 15 15 15 15 15 17 18 18 18 18 18 18 19 20 22 22 23 23 23 23 25 26 26 26 25 21 20 20 21 21 21 21 21 21 22
7 10 12 13 13 14 15 15 15 14 12 12 14 17 17 18 18 19 19 20 20 22 23 23 24 23 23 25 26 27 28 26 22 20 21 22 21 22 21 20 21 22
7 8 9 11 11 11 12 14 15 16 15 15 15 14 15 16 17 17 19 19 20 20 22 23 24 24 23 25 25 26 27 27 24 21 21 22 21 21 22 21 20 20
Wind_Direction
195 193 190 190 190 190 190 189 190 189 188 186 184 185 187 188 189 193 198 199 200 203 206 207 206 205 207 205 204 205 202 202 202 198 199 207 218 225 230 234 240 251
193 196 196 191 188 190 188 188 190 188 188 188 187 186 188 189 190 193 197 197 199 204 203 204 205 204 206 205 204 205 203 204 206 205 204 208 220 227 229 233 235 239
190 196 199 194 189 189 186 185 187 187 187 187 188 188 188 192 195 196 198 197 201 204 202 203 204 202 205 204 202 207 206 206 212 214 208 210 221 228 229 233 235 234
190 196 198 195 190 189 186 184 185 187 188 186 187 190 190 194 196 197 199 198 200 205 202 204 205 202 205 204 202 209 208 206 216 221 214 214 222 228 232 235 237 238
194 197 199 194 188 189 188 186 186 187 188 187 188 191 192 194 195 196 198 196 199 205 203 203 206 204 205 203 203 209 209 207 213 218 219 219 223 228 233 235 235 239
195 195 198 194 189 190 189 188 188 187 188 188 188 191 192 193 196 198 197 196 198 204 204 204 206 206 206 205 206 210 213 214 212 211 217 223 226 229 233 232 230 236
195 194 197 196 192 190 188 188 188 187 188 187 187 192 193 193 197 200 199 197 199 203 206 205 204 207 207 205 208 212 215 222 219 210 214 223 228 231 234 233 229 234
194 195 197 196 192 189 189 188 186 186 186 185 188 192 194 193 196 200 200 198 199 202 205 205 203 208 211 209 211 213 214 221 222 216 217 224 227 228 231 234 232 233
195 196 197 195 192 189 190 189 186 186 186 187 190 190 191 192 194 199 199 197 200 202 202 205 204 206 213 213 213 213 214 220 222 218 218 223 226 227 228 232 235 235
196 195 194 193 192 191 191 190 187 185 186 189 191 189 189 191 193 196 195 195 201 202 201 206 207 207 211 213 214 214 214 219 223 221 219 221 224 227 230 232 235 238
194 192 195 194 192 192 191 191 189 186 186 189 192 192 190 189 192 195 195 196 200 203 203 206 208 209 211 213 216 217 217 219 222 223 223 223 226 228 231 234 236 239
196 194 195 192 192 194 191 190 190 187 186 189 193 195 193 192 193 196 199 200 203 207 208 208 209 211 211 214 217 218 220 221 222 223 224 225 227 229 230 233 235 238
197 195 195 192 193 195 192 190 191 189 189 190 193 195 197 198 196 197 202 204 206 211 212 209 209 211 212 214 218 220 221 222 223 224 225 226 228 230 231 232 233 236
196 195 194 193 193 195 194 193 191 192 192 193 194 196 199 202 200 198 202 206 207 210 213 212 211 212 214 214 217 221 222 223 224 226 227 229 229 231 231 233 233 234
195 197 195 192 192 194 197 197 196 195 195 196 198 199 201 205 205 202 202 206 208 210 213 215 215 215 217 217 218 220 222 223 224 226 229 231 232 234 233 233 234 235
197 199 198 194 193 195 198 201 201 200 200 201 202 203 204 206 208 208 208 208 209 211 214 217 220 221 219 218 218 218 220 225 226 227 230 232 234 237 237 236 237 238
200 202 201 199 198 199 201 203 206 206 205 206 206 207 208 209 210 212 213 213 212 214 216 219 222 224 220 218 218 217 220 226 230 230 231 232 234 236 237 238 239 240
204 204 204 203 202 204 206 207 210 211 210 210 211 210 210 211 214 216 218 220 219 219 221 223 225 225 223 223 223 223 224 227 232 234 233 234 234 234 235 237 238 239
206 206 206 207 206 206 208 209 212 215 215 214 213 213 213 215 217 219 222 224 226 227 227 228 229 228 227 227 227 228 229 229 232 235 236 236 235 235 236 236 237 238
210 210 208 210 210 209 209 210 212 215 216 216 214 213 215 217 219 221 223 225 227 229 231 232 232 230 230 229 229 230 232 231 232 235 237 237 236 236 238 238 238 238
216 216 212 209 210 211 213 213 214 215 216 217 216 215 216 218 220 223 223 224 226 227 230 232 232 231 230 230 230 232 235 236 236 237 238 238 236 235 236 237 237 237
221 223 221 215 209 208 212 214 215 216 216 216 217 218 219 219 222 225 227 228 228 228 231 234 234 232 230 229 231 233 237 239 238 238 239 239 238 236 234 235 235 235
228 229 229 226 219 215 216 217 218 219 218 217 217 219 220 220 222 226 229 230 231 231 231 234 236 234 230 230 231 232 234 235 233 235 239 239 239 237 235 235 234 234
227 230 234 234 231 228 228 230 231 228 223 220 221 224 226 226 228 230 231 233 235 234 234 235 237 236 232 231 232 233 234 231 227 231 236 238 239 238 237 237 236 236
215 224 232 238 239 237 237 240 242 241 239 234 230 231 233 233 233 235 236 237 237 237 237 238 239 239 237 235 236 237 236 231 226 228 232 235 238 240 239 239 238 239
211 218 229 238 243 242 240 239 238 240 243 243 239 237 238 239 238 237 238 238 238 238 239 238 239 241 239 237 236 238 238 234 228 227 230 231 233 236 238 239 237 238